Location: Jastrz?bniki
(50.3667°N, 20.3833°E)
Time: 10:33:07
(UTC+00:00)

Cosmos 1300 - Pass Details

Date: 05 August 2024
Orbit: 455 x 456 km, 82.5° (Epoch: 09 September)

Event Time Altitude Azimuth Distance (km) Brightness Sun altitude
Exits shadow 02:00:02 - 171° (S) 2,470 5.8 -10.3°
Reaches altitude 10° 02:02:06 10° 163° (SSE) 1,631 5.0 -10.0°
Maximum altitude 02:05:27 39° 94° (E) 720 3.8 -9.6°
Drops below altitude 10° 02:08:50 10° 24° (NNE) 1,646 6.4 -9.2°
Sets 02:11:01 0° 17° (NNE) 2,533 7.3 -8.9°
